Location: Newark
(6.0333°S, 36.1333°E)
Time: 07:27:40
(UTC+00:00)

ISS - Pass Details

Date: 23 November 2019
Orbit: 411 x 421 km, 51.6° (Epoch: 10 December)

Event Time Altitude Azimuth Distance (km) Brightness Sun altitude
Exits shadow 01:48:28 32° 214° (SW) 748 -2.6 -19.4°
Drops below altitude 10° 01:51:04 10° 167° (SSE) 1,497 -0.5 -18.8°
Sets 01:53:17 0° 157° (SSE) 2,361 0.8 -18.3°
